User: anonymous   Login
Location: Habighorst
(52.7089°N, 10.2278°E)
Time: 23:36:05
(UTC+00:00)
Language:

USA 32 - Orbit

View from above orbital plane
View from above orbital plane
View from above satellite
View from above satellite

Ground track
Ground track

The orbit is defined by the following mean orbital elements,

1 19460U          26074.54623380 +.00000000 +00000-0 +52989-4 0 00000
2 19460  84.9915 167.5032 0004632  66.1416 294.0262 14.34417018    09
Epoch (UTC): 15 March 2026 13:06:34
Eccentricity: 0.0004632
inclination: 84.9915°
perigee height: 774 km
apogee height: 780 km
right ascension of ascending node: 167.5032°
argument of perigee: 66.1416°
revolutions per day: 14.34417018
mean anomaly at epoch: 294.0262°

The dashed part of the orbit path shows where the satellite is in the earth's shadow,  

DLR